Find Starlink 38129

NORAD ID: 100268 Int'l Des: 2026-181 Owner: SPXS Country: US Constellation: starlink operational

Aktuelle Ansicht

3D-Globus wird geladen...

About Starlink 38129

Starlink 38129 (NORAD 100268) is a starlink constellation satellite launched Aug 8, 2026 by SPXS of US. with a mass of 575.00 kg.

Nächste Überflüge

Passes for default location (London). Set your location on the main map for personalized predictions.

Höhenverlauf

Loading altitude history...

Zweizeiliger Elementsatz

1 A0268U 26181Y 26249.62178958 .00153889 00000-0 10127-2 0 9990
2 A0268 97.2837 292.4992 0001668 124.0010 236.1414 15.75221333 5761
Epoch: 6. Sept. 2026 • Age: 6 hours

Aktueller Status

Höhe 360.8 km
Apogäum / Perigäum N/A
Geschwindigkeit 7.69 km/s
Subsatellitenpunkt -43.44°S, 173.24°E
Startdatum 8. Aug. 2026
Alter 29 days
Typ internet

Technische Details

Klassifizierung Payload
Masse 575.00 kg
Trockenmasse 530.00 kg
Gesamtmasse 575.00 kg
Länge 0.30 m
Durchmesser 4.10 m
Spannweite 29.00 m
Form Box + pan
Hersteller SPXS
Bus-Typ Starlink V2MO
Phasenstatus In Orbit
Besitzer/Staat SPXS/US

Most Searched